Year,Month,Day,Hour,Minute,Value (Times are PST for temperature in C)
2012,10,16,00,00,12.30
2012,10,16,00,01,12.20
2012,10,16,00,02,12.20
2012,10,16,00,03,12.20
2012,10,16,00,04,12.30
2012,10,16,00,05,12.30
2012,10,16,00,06,12.40
2012,10,16,00,07,12.40
2012,10,16,00,08,12.50
2012,10,16,00,09,12.60
2012,10,16,00,10,12.60
2012,10,16,00,11,12.60
2012,10,16,00,12,12.70
2012,10,16,00,13,12.70
2012,10,16,00,14,12.70
2012,10,16,00,15,12.80
2012,10,16,00,16,12.80
2012,10,16,00,17,12.80
2012,10,16,00,18,12.80
2012,10,16,00,19,12.80
2012,10,16,00,20,12.80
2012,10,16,00,21,12.80
2012,10,16,00,22,12.70
2012,10,16,00,23,12.60
2012,10,16,00,24,12.60
2012,10,16,00,25,12.50
2012,10,16,00,26,12.50
2012,10,16,00,27,12.40
2012,10,16,00,28,12.40
2012,10,16,00,29,12.40
2012,10,16,00,30,12.30
2012,10,16,00,31,12.30
2012,10,16,00,32,12.20
2012,10,16,00,33,12.00
2012,10,16,00,34,11.90
2012,10,16,00,35,11.80
2012,10,16,00,36,11.70
2012,10,16,00,37,11.60
2012,10,16,00,38,11.50
2012,10,16,00,39,11.40
2012,10,16,00,40,11.30
2012,10,16,00,41,11.20
2012,10,16,00,42,11.10
2012,10,16,00,43,11.00
2012,10,16,00,44,11.00
2012,10,16,00,45,10.90
2012,10,16,00,46,10.90
2012,10,16,00,47,10.90
2012,10,16,00,48,10.80
2012,10,16,00,49,10.80
2012,10,16,00,50,10.80
2012,10,16,00,51,10.80
2012,10,16,00,52,10.80
2012,10,16,00,53,10.70
2012,10,16,00,54,10.70
2012,10,16,00,55,10.60
2012,10,16,00,56,10.60
2012,10,16,00,57,10.60
2012,10,16,00,58,10.50
2012,10,16,00,59,10.50
2012,10,16,01,00,10.50
2012,10,16,01,01,10.40
2012,10,16,01,02,10.40
2012,10,16,01,03,10.40
2012,10,16,01,04,10.30
2012,10,16,01,05,10.30
2012,10,16,01,06,10.20
2012,10,16,01,07,10.20
2012,10,16,01,08,10.20
2012,10,16,01,09,10.20
2012,10,16,01,10,10.20
2012,10,16,01,11,10.20
2012,10,16,01,12,10.20
2012,10,16,01,13,10.20
2012,10,16,01,14,10.20
2012,10,16,01,15,10.10
2012,10,16,01,16,10.10
2012,10,16,01,17,10.10
2012,10,16,01,18,10.00
2012,10,16,01,19,10.00
2012,10,16,01,20,10.00
2012,10,16,01,21,10.00
2012,10,16,01,22,9.90
2012,10,16,01,23,9.90
2012,10,16,01,24,9.90
2012,10,16,01,25,9.90
2012,10,16,01,26,9.80
2012,10,16,01,27,9.80
2012,10,16,01,28,9.80
2012,10,16,01,29,9.80
2012,10,16,01,30,9.80
2012,10,16,01,31,9.80
2012,10,16,01,32,9.80
2012,10,16,01,33,9.80
2012,10,16,01,34,9.80
2012,10,16,01,35,9.80
2012,10,16,01,36,9.80
2012,10,16,01,37,9.70
2012,10,16,01,38,9.70
2012,10,16,01,39,9.70
2012,10,16,01,40,9.70
2012,10,16,01,41,9.70
2012,10,16,01,42,9.70
2012,10,16,01,43,9.80
2012,10,16,01,44,9.80
2012,10,16,01,45,9.80
2012,10,16,01,46,9.80
2012,10,16,01,47,9.80
2012,10,16,01,48,9.90
2012,10,16,01,49,10.00
2012,10,16,01,50,10.00
2012,10,16,01,51,10.20
2012,10,16,01,52,10.40
2012,10,16,01,53,10.50
2012,10,16,01,54,10.70
2012,10,16,01,55,10.80
2012,10,16,01,56,10.90
2012,10,16,01,57,11.00
2012,10,16,01,58,11.10
2012,10,16,01,59,11.20
2012,10,16,02,00,11.20
2012,10,16,02,01,11.20
2012,10,16,02,02,11.30
2012,10,16,02,03,11.30
2012,10,16,02,04,11.30
2012,10,16,02,05,11.40
2012,10,16,02,06,11.40
2012,10,16,02,07,11.40
2012,10,16,02,08,11.40
2012,10,16,02,09,11.30
2012,10,16,02,10,11.30
2012,10,16,02,11,11.20
2012,10,16,02,12,11.20
2012,10,16,02,13,11.20
2012,10,16,02,14,11.30
2012,10,16,02,15,11.30
2012,10,16,02,16,11.30
2012,10,16,02,17,11.40
2012,10,16,02,18,11.50
2012,10,16,02,19,11.50
2012,10,16,02,20,11.60
2012,10,16,02,21,11.90
2012,10,16,02,22,12.10
2012,10,16,02,23,12.30
2012,10,16,02,24,12.40
2012,10,16,02,25,12.60
2012,10,16,02,26,12.70
2012,10,16,02,27,12.70
2012,10,16,02,28,12.80
2012,10,16,02,29,12.80
2012,10,16,02,30,12.80
2012,10,16,02,31,12.80
2012,10,16,02,32,12.90
2012,10,16,02,33,12.90
2012,10,16,02,34,12.90
2012,10,16,02,35,12.90
2012,10,16,02,36,12.90
2012,10,16,02,37,12.80
2012,10,16,02,38,12.80
2012,10,16,02,39,12.80
2012,10,16,02,40,12.80
2012,10,16,02,41,12.70
2012,10,16,02,42,12.70
2012,10,16,02,43,12.60
2012,10,16,02,44,12.60
2012,10,16,02,45,12.60
2012,10,16,02,46,12.50
2012,10,16,02,47,12.50
2012,10,16,02,48,12.40
2012,10,16,02,49,12.40
2012,10,16,02,50,12.40
2012,10,16,02,51,12.40
2012,10,16,02,52,12.40
2012,10,16,02,53,12.40
2012,10,16,02,54,12.40
2012,10,16,02,55,12.40
2012,10,16,02,56,12.40
2012,10,16,02,57,12.40
2012,10,16,02,58,12.40
2012,10,16,02,59,12.40
2012,10,16,03,00,12.40
2012,10,16,03,01,12.40
2012,10,16,03,02,12.40
2012,10,16,03,03,12.40
2012,10,16,03,04,12.40
2012,10,16,03,05,12.40
2012,10,16,03,06,12.40
2012,10,16,03,07,12.40
2012,10,16,03,08,12.40
2012,10,16,03,09,12.40
2012,10,16,03,10,12.40
2012,10,16,03,11,12.40
2012,10,16,03,12,12.30
2012,10,16,03,13,12.30
2012,10,16,03,14,12.30
2012,10,16,03,15,12.30
2012,10,16,03,16,12.30
2012,10,16,03,17,12.30
2012,10,16,03,18,12.30
2012,10,16,03,19,12.30
2012,10,16,03,20,12.40
2012,10,16,03,21,12.40
2012,10,16,03,22,12.50
2012,10,16,03,23,12.50
2012,10,16,03,24,12.60
2012,10,16,03,25,12.60
2012,10,16,03,26,12.60
2012,10,16,03,27,12.60
2012,10,16,03,28,12.60
2012,10,16,03,29,12.70
2012,10,16,03,30,12.70
2012,10,16,03,31,12.70
2012,10,16,03,32,12.70
2012,10,16,03,33,12.70
2012,10,16,03,34,12.70
2012,10,16,03,35,12.70
2012,10,16,03,36,12.60
2012,10,16,03,37,12.60
2012,10,16,03,38,12.60
2012,10,16,03,39,12.50
2012,10,16,03,40,12.50
2012,10,16,03,41,12.50
2012,10,16,03,42,12.40
2012,10,16,03,43,12.40
2012,10,16,03,44,12.30
2012,10,16,03,45,12.30
2012,10,16,03,46,12.30
2012,10,16,03,47,12.20
2012,10,16,03,48,12.20
2012,10,16,03,49,12.10
2012,10,16,03,50,12.00
2012,10,16,03,51,12.00
2012,10,16,03,52,12.00
2012,10,16,03,53,11.90
2012,10,16,03,54,11.90
2012,10,16,03,55,11.90
2012,10,16,03,56,12.00
2012,10,16,03,57,12.00
2012,10,16,03,58,12.00
2012,10,16,03,59,12.10
2012,10,16,04,00,12.10
2012,10,16,04,01,12.10
2012,10,16,04,02,12.10
2012,10,16,04,03,12.10
2012,10,16,04,04,12.10
2012,10,16,04,05,12.10
2012,10,16,04,06,12.10
2012,10,16,04,07,12.10
2012,10,16,04,08,12.10
2012,10,16,04,09,12.10
2012,10,16,04,10,12.10
2012,10,16,04,11,12.10
2012,10,16,04,12,12.10
2012,10,16,04,13,12.10
2012,10,16,04,14,12.10
2012,10,16,04,15,12.10
2012,10,16,04,16,12.10
2012,10,16,04,17,12.10
2012,10,16,04,18,12.10
2012,10,16,04,19,12.10
2012,10,16,04,20,12.00
2012,10,16,04,21,12.00
2012,10,16,04,22,11.90
2012,10,16,04,23,11.90
2012,10,16,04,24,11.90
2012,10,16,04,25,11.90
2012,10,16,04,26,11.90
2012,10,16,04,27,11.80
2012,10,16,04,28,11.80
2012,10,16,04,29,11.80
2012,10,16,04,30,11.70
2012,10,16,04,31,11.70
2012,10,16,04,32,11.60
2012,10,16,04,33,11.60
2012,10,16,04,34,11.50
2012,10,16,04,35,11.40
2012,10,16,04,36,11.40
2012,10,16,04,37,11.40
2012,10,16,04,38,11.30
2012,10,16,04,39,11.30
2012,10,16,04,40,11.30
2012,10,16,04,41,11.30
2012,10,16,04,42,11.30
2012,10,16,04,43,11.30
2012,10,16,04,44,11.30
2012,10,16,04,45,11.30
2012,10,16,04,46,11.30
2012,10,16,04,47,11.20
2012,10,16,04,48,11.20
2012,10,16,04,49,11.20
2012,10,16,04,50,11.20
2012,10,16,04,51,11.20
2012,10,16,04,52,11.20
2012,10,16,04,53,11.20
2012,10,16,04,54,11.20
2012,10,16,04,55,11.20
2012,10,16,04,56,11.20
2012,10,16,04,57,11.20
2012,10,16,04,58,11.20
2012,10,16,04,59,11.20
2012,10,16,05,00,11.20
2012,10,16,05,01,11.20
2012,10,16,05,02,11.20
2012,10,16,05,03,11.20
2012,10,16,05,04,11.20
2012,10,16,05,05,11.20
2012,10,16,05,06,11.10
2012,10,16,05,07,11.10
2012,10,16,05,08,11.10
2012,10,16,05,09,11.00
2012,10,16,05,10,10.90
2012,10,16,05,11,10.90
2012,10,16,05,12,10.80
2012,10,16,05,13,10.80
2012,10,16,05,14,10.80
2012,10,16,05,15,10.70
2012,10,16,05,16,10.70
2012,10,16,05,17,10.60
2012,10,16,05,18,10.50
2012,10,16,05,19,10.50
2012,10,16,05,20,10.40
2012,10,16,05,21,10.40
2012,10,16,05,22,10.30
2012,10,16,05,23,10.30
2012,10,16,05,24,10.20
2012,10,16,05,25,10.20
2012,10,16,05,26,10.10
2012,10,16,05,27,10.10
2012,10,16,05,28,10.00
2012,10,16,05,29,10.00
2012,10,16,05,30,10.00
2012,10,16,05,31,9.90
2012,10,16,05,32,9.90
2012,10,16,05,33,9.90
2012,10,16,05,34,9.80
2012,10,16,05,35,9.80
2012,10,16,05,36,9.80
2012,10,16,05,37,9.80
2012,10,16,05,38,9.80
2012,10,16,05,39,9.80
2012,10,16,05,40,9.70
2012,10,16,05,41,9.70
2012,10,16,05,42,9.70
2012,10,16,05,43,9.70
2012,10,16,05,44,9.70
2012,10,16,05,45,9.70
2012,10,16,05,46,9.70
2012,10,16,05,47,9.70
2012,10,16,05,48,9.60
2012,10,16,05,49,9.60
2012,10,16,05,50,9.60
2012,10,16,05,51,9.60
2012,10,16,05,52,9.60
2012,10,16,05,53,9.60
2012,10,16,05,54,9.60
2012,10,16,05,55,9.60
2012,10,16,05,56,9.60
2012,10,16,05,57,9.60
2012,10,16,05,58,9.50
2012,10,16,05,59,9.50
2012,10,16,06,00,9.50
2012,10,16,06,01,9.50
2012,10,16,06,02,9.40
2012,10,16,06,03,9.40
2012,10,16,06,04,9.40
2012,10,16,06,05,9.40
2012,10,16,06,06,9.40
2012,10,16,06,07,9.40
2012,10,16,06,08,9.40
2012,10,16,06,09,9.40
2012,10,16,06,10,9.40
2012,10,16,06,11,9.30
2012,10,16,06,12,9.30
2012,10,16,06,13,9.30
2012,10,16,06,14,9.30
2012,10,16,06,15,9.30
2012,10,16,06,16,9.30
2012,10,16,06,17,9.30
2012,10,16,06,18,9.20
2012,10,16,06,19,9.20
2012,10,16,06,20,9.20
2012,10,16,06,21,9.20
2012,10,16,06,22,9.20
2012,10,16,06,23,9.20
2012,10,16,06,24,9.10
2012,10,16,06,25,9.10
2012,10,16,06,26,9.10
2012,10,16,06,27,9.10
2012,10,16,06,28,9.00
2012,10,16,06,29,9.00
2012,10,16,06,30,9.00
2012,10,16,06,31,8.90
2012,10,16,06,32,8.90
2012,10,16,06,33,8.90
2012,10,16,06,34,8.90
2012,10,16,06,35,8.90
2012,10,16,06,36,8.80
2012,10,16,06,37,8.80
2012,10,16,06,38,8.80
2012,10,16,06,39,8.70
2012,10,16,06,40,8.70
2012,10,16,06,41,8.70
2012,10,16,06,42,8.70
2012,10,16,06,43,8.70
2012,10,16,06,44,8.60
2012,10,16,06,45,8.60
2012,10,16,06,46,8.60
2012,10,16,06,47,8.50
2012,10,16,06,48,8.50
2012,10,16,06,49,8.50
2012,10,16,06,50,8.40
2012,10,16,06,51,8.40
2012,10,16,06,52,8.40
2012,10,16,06,53,8.30
2012,10,16,06,54,8.30
2012,10,16,06,55,8.20
2012,10,16,06,56,8.20
2012,10,16,06,57,8.20
2012,10,16,06,58,8.20
2012,10,16,06,59,8.10
2012,10,16,07,00,8.10
2012,10,16,07,01,8.10
2012,10,16,07,02,8.00
2012,10,16,07,03,8.00
2012,10,16,07,04,8.00
2012,10,16,07,05,7.90
2012,10,16,07,06,7.90
2012,10,16,07,07,7.90
2012,10,16,07,08,7.90
2012,10,16,07,09,7.90
2012,10,16,07,10,7.90
2012,10,16,07,11,7.90
2012,10,16,07,12,8.00
2012,10,16,07,13,8.00
2012,10,16,07,14,8.00
2012,10,16,07,15,8.00
2012,10,16,07,16,8.00
2012,10,16,07,17,8.00
2012,10,16,07,18,8.00
2012,10,16,07,19,8.00
2012,10,16,07,20,8.00
2012,10,16,07,21,7.90
2012,10,16,07,22,7.90
2012,10,16,07,23,7.80
2012,10,16,07,24,7.80
2012,10,16,07,25,7.80
2012,10,16,07,26,7.70
2012,10,16,07,27,7.70
2012,10,16,07,28,7.60
2012,10,16,07,29,7.60
2012,10,16,07,30,7.50
2012,10,16,07,31,7.40
2012,10,16,07,32,7.30
2012,10,16,07,33,7.20
2012,10,16,07,34,7.20
2012,10,16,07,35,7.10
2012,10,16,07,36,7.10
2012,10,16,07,37,7.00
2012,10,16,07,38,7.00
2012,10,16,07,39,6.90
2012,10,16,07,40,6.80
2012,10,16,07,41,6.80
2012,10,16,07,42,6.80
2012,10,16,07,43,6.70
2012,10,16,07,44,6.70
2012,10,16,07,45,6.60
2012,10,16,07,46,6.60
2012,10,16,07,47,6.50
2012,10,16,07,48,6.50
2012,10,16,07,49,6.40
2012,10,16,07,50,6.40
2012,10,16,07,51,6.40
2012,10,16,07,52,6.30
2012,10,16,07,53,6.30
2012,10,16,07,54,6.30
2012,10,16,07,55,6.30
2012,10,16,07,56,6.30
2012,10,16,07,57,6.20
2012,10,16,07,58,6.20
2012,10,16,07,59,6.20
2012,10,16,08,00,6.20
2012,10,16,08,01,6.20
2012,10,16,08,02,6.20
2012,10,16,08,03,6.20
2012,10,16,08,04,6.20
2012,10,16,08,05,6.10
2012,10,16,08,06,6.10
2012,10,16,08,07,6.10
2012,10,16,08,08,6.20
2012,10,16,08,09,6.20
2012,10,16,08,10,6.20
2012,10,16,08,11,6.20
2012,10,16,08,12,6.20
2012,10,16,08,13,6.20
2012,10,16,08,14,6.20
2012,10,16,08,15,6.20
2012,10,16,08,16,6.20
2012,10,16,08,17,6.20
2012,10,16,08,18,6.20
2012,10,16,08,19,6.30
2012,10,16,08,20,6.30
2012,10,16,08,21,6.30
2012,10,16,08,22,6.30
2012,10,16,08,23,6.30
2012,10,16,08,24,6.30
2012,10,16,08,25,6.30
2012,10,16,08,26,6.40
2012,10,16,08,27,6.40
2012,10,16,08,28,6.40
2012,10,16,08,29,6.40
2012,10,16,08,30,6.50
2012,10,16,08,31,6.50
2012,10,16,08,32,6.50
2012,10,16,08,33,6.50
2012,10,16,08,34,6.60
2012,10,16,08,35,6.60
2012,10,16,08,36,6.60
2012,10,16,08,37,6.60
2012,10,16,08,38,6.60
2012,10,16,08,39,6.60
2012,10,16,08,40,6.70
2012,10,16,08,41,6.70
2012,10,16,08,42,6.70
2012,10,16,08,43,6.80
2012,10,16,08,44,6.80
2012,10,16,08,45,6.80
2012,10,16,08,46,6.80
2012,10,16,08,47,6.80
2012,10,16,08,48,6.90
2012,10,16,08,49,6.90
2012,10,16,08,50,6.90
2012,10,16,08,51,7.00
2012,10,16,08,52,7.00
2012,10,16,08,53,7.10
2012,10,16,08,54,7.20
2012,10,16,08,55,7.20
2012,10,16,08,56,7.30
2012,10,16,08,57,7.30
2012,10,16,08,58,7.40
2012,10,16,08,59,7.50
2012,10,16,09,00,7.60
2012,10,16,09,01,7.60
2012,10,16,09,02,7.70
2012,10,16,09,03,7.70
2012,10,16,09,04,7.80
2012,10,16,09,05,7.80
2012,10,16,09,06,7.80
2012,10,16,09,07,7.90
2012,10,16,09,08,7.90
2012,10,16,09,09,7.90
2012,10,16,09,10,8.00
2012,10,16,09,11,8.00
2012,10,16,09,12,8.10
2012,10,16,09,13,8.10
2012,10,16,09,14,8.20
2012,10,16,09,15,8.20
2012,10,16,09,16,8.30
2012,10,16,09,17,8.40
2012,10,16,09,18,8.50
2012,10,16,09,19,8.50
2012,10,16,09,20,8.70
2012,10,16,09,21,8.80
2012,10,16,09,22,8.90
2012,10,16,09,23,9.00
2012,10,16,09,24,9.10
2012,10,16,09,25,9.20
2012,10,16,09,26,9.30
2012,10,16,09,27,9.30
2012,10,16,09,28,9.40
2012,10,16,09,29,9.50
2012,10,16,09,30,9.70
2012,10,16,09,31,9.70
2012,10,16,09,32,9.80
2012,10,16,09,33,9.90
2012,10,16,09,34,10.00
2012,10,16,09,35,10.10
2012,10,16,09,36,10.20
2012,10,16,09,37,10.30
2012,10,16,09,38,10.40
2012,10,16,09,39,10.50
2012,10,16,09,40,10.60
2012,10,16,09,41,10.70
2012,10,16,09,42,10.80
2012,10,16,09,43,10.90
2012,10,16,09,44,10.90
2012,10,16,09,45,11.00
2012,10,16,09,46,11.10
2012,10,16,09,47,11.10
2012,10,16,09,48,11.20
2012,10,16,09,49,11.20
2012,10,16,09,50,11.30
2012,10,16,09,51,11.30
2012,10,16,09,52,11.30
2012,10,16,09,53,11.40
2012,10,16,09,54,11.40
2012,10,16,09,55,11.40
2012,10,16,09,56,11.40
2012,10,16,09,57,11.50
2012,10,16,09,58,11.50
2012,10,16,09,59,11.50
2012,10,16,10,00,11.50
2012,10,16,10,01,11.60
2012,10,16,10,02,11.60
2012,10,16,10,03,11.70
2012,10,16,10,04,11.70
2012,10,16,10,05,11.70
2012,10,16,10,06,11.70
2012,10,16,10,07,11.70
2012,10,16,10,08,11.80
2012,10,16,10,09,11.80
2012,10,16,10,10,11.80
2012,10,16,10,11,11.90
2012,10,16,10,12,11.90
2012,10,16,10,13,12.00
2012,10,16,10,14,12.00
2012,10,16,10,15,12.10
2012,10,16,10,16,12.10
2012,10,16,10,17,12.20
2012,10,16,10,18,12.20
2012,10,16,10,19,12.20
2012,10,16,10,20,12.30
2012,10,16,10,21,12.30
2012,10,16,10,22,12.40
2012,10,16,10,23,12.40
2012,10,16,10,24,12.40
2012,10,16,10,25,12.40
2012,10,16,10,26,12.40
2012,10,16,10,27,12.40
2012,10,16,10,28,12.40
2012,10,16,10,29,12.40
2012,10,16,10,30,12.40
2012,10,16,10,31,12.40
2012,10,16,10,32,12.50
2012,10,16,10,33,12.50
2012,10,16,10,34,12.50
2012,10,16,10,35,12.60
2012,10,16,10,36,12.60
2012,10,16,10,37,12.60
2012,10,16,10,38,12.60
2012,10,16,10,39,12.60
2012,10,16,10,40,12.60
2012,10,16,10,41,12.60
2012,10,16,10,42,12.60
2012,10,16,10,43,12.60
2012,10,16,10,44,12.60
2012,10,16,10,45,12.60
2012,10,16,10,46,12.60
2012,10,16,10,47,12.60
2012,10,16,10,48,12.60
2012,10,16,10,49,12.60
2012,10,16,10,50,12.60
2012,10,16,10,51,12.70
2012,10,16,10,52,12.70
2012,10,16,10,53,12.70
2012,10,16,10,54,12.70
2012,10,16,10,55,12.70
2012,10,16,10,56,12.70
2012,10,16,10,57,12.70
2012,10,16,10,58,12.70
2012,10,16,10,59,12.70
2012,10,16,11,00,12.70
2012,10,16,11,01,12.60
2012,10,16,11,02,12.60
2012,10,16,11,03,12.50
2012,10,16,11,04,12.50
2012,10,16,11,05,12.50
2012,10,16,11,06,12.40
2012,10,16,11,07,12.40
2012,10,16,11,08,12.50
2012,10,16,11,09,12.50
2012,10,16,11,10,12.50
2012,10,16,11,11,12.50
2012,10,16,11,12,12.50
2012,10,16,11,13,12.40
2012,10,16,11,14,12.40
2012,10,16,11,15,12.40
2012,10,16,11,16,12.40
2012,10,16,11,17,12.40
2012,10,16,11,18,12.40
2012,10,16,11,19,12.50
2012,10,16,11,20,12.50
2012,10,16,11,21,12.60
2012,10,16,11,22,12.60
2012,10,16,11,23,12.70
2012,10,16,11,24,12.70
2012,10,16,11,25,12.70
2012,10,16,11,26,12.80
2012,10,16,11,27,12.70
2012,10,16,11,28,12.70
2012,10,16,11,29,12.70
2012,10,16,11,30,12.70
2012,10,16,11,31,12.70
2012,10,16,11,32,12.70
2012,10,16,11,33,12.60
2012,10,16,11,34,12.60
2012,10,16,11,35,12.50
2012,10,16,11,36,12.50
2012,10,16,11,37,12.50
2012,10,16,11,38,12.50
2012,10,16,11,39,12.50
2012,10,16,11,40,12.50
2012,10,16,11,41,12.50
2012,10,16,11,42,12.60
2012,10,16,11,43,12.60
2012,10,16,11,44,12.70
2012,10,16,11,45,12.70
2012,10,16,11,46,12.70
2012,10,16,11,47,12.70
2012,10,16,11,48,12.70
2012,10,16,11,49,12.60
2012,10,16,11,50,12.60
2012,10,16,11,51,12.70
2012,10,16,11,52,12.70
2012,10,16,11,53,12.70
2012,10,16,11,54,12.80
2012,10,16,11,55,12.80
2012,10,16,11,56,12.80
2012,10,16,11,57,12.90
2012,10,16,11,58,12.90
2012,10,16,11,59,13.00
2012,10,16,12,00,13.00
2012,10,16,12,01,13.10
2012,10,16,12,02,13.20
2012,10,16,12,03,13.20
2012,10,16,12,04,13.30
2012,10,16,12,05,13.30
2012,10,16,12,06,13.30
2012,10,16,12,07,13.30
2012,10,16,12,08,13.30
2012,10,16,12,09,13.20
2012,10,16,12,10,13.20
2012,10,16,12,11,13.20
2012,10,16,12,12,13.10
2012,10,16,12,13,13.10
2012,10,16,12,14,13.10
2012,10,16,12,15,13.10
2012,10,16,12,16,13.10
2012,10,16,12,17,13.00
2012,10,16,12,18,13.00
2012,10,16,12,19,12.90
2012,10,16,12,20,12.90
2012,10,16,12,21,12.90
2012,10,16,12,22,12.90
2012,10,16,12,23,12.90
2012,10,16,12,24,12.90
2012,10,16,12,25,12.90
2012,10,16,12,26,12.90
2012,10,16,12,27,12.90
2012,10,16,12,28,12.80
2012,10,16,12,29,12.80
2012,10,16,12,30,12.80
2012,10,16,12,31,12.80
2012,10,16,12,32,12.80
2012,10,16,12,33,12.80
2012,10,16,12,34,12.80
2012,10,16,12,35,12.80
2012,10,16,12,36,12.80
2012,10,16,12,37,12.80
2012,10,16,12,38,12.90
2012,10,16,12,39,12.90
2012,10,16,12,40,12.90
2012,10,16,12,41,12.90
2012,10,16,12,42,13.00
2012,10,16,12,43,13.00
2012,10,16,12,44,13.10
2012,10,16,12,45,13.10
2012,10,16,12,46,13.10
2012,10,16,12,47,13.20
2012,10,16,12,48,13.20
2012,10,16,12,49,13.20
2012,10,16,12,50,13.20
2012,10,16,12,51,13.20
2012,10,16,12,52,13.20
2012,10,16,12,53,13.20
2012,10,16,12,54,13.20
2012,10,16,12,55,13.30
2012,10,16,12,56,13.30
2012,10,16,12,57,13.30
2012,10,16,12,58,13.30
2012,10,16,12,59,13.30
2012,10,16,13,00,13.30
2012,10,16,13,01,13.30
2012,10,16,13,02,13.30
2012,10,16,13,03,13.40
2012,10,16,13,04,13.40
2012,10,16,13,05,13.40
2012,10,16,13,06,13.40
2012,10,16,13,07,13.40
2012,10,16,13,08,13.50
2012,10,16,13,09,13.50
2012,10,16,13,10,13.50
2012,10,16,13,11,13.60
2012,10,16,13,12,13.60
2012,10,16,13,13,13.60
2012,10,16,13,14,13.60
2012,10,16,13,15,13.60
2012,10,16,13,16,13.70
2012,10,16,13,17,13.70
2012,10,16,13,18,13.70
2012,10,16,13,19,13.70
2012,10,16,13,20,13.60
2012,10,16,13,21,13.50
2012,10,16,13,22,13.40
2012,10,16,13,23,13.30
2012,10,16,13,24,13.30
2012,10,16,13,25,13.20
2012,10,16,13,26,13.10
2012,10,16,13,27,13.00
2012,10,16,13,28,13.00
2012,10,16,13,29,13.00
2012,10,16,13,30,13.00
2012,10,16,13,31,13.00
2012,10,16,13,32,13.00
2012,10,16,13,33,13.00
2012,10,16,13,34,12.90
2012,10,16,13,35,13.00
2012,10,16,13,36,12.90
2012,10,16,13,37,13.00
2012,10,16,13,38,13.00
2012,10,16,13,39,13.00
2012,10,16,13,40,13.00
2012,10,16,13,41,13.00
2012,10,16,13,42,12.90
2012,10,16,13,43,12.90
2012,10,16,13,44,12.90
2012,10,16,13,45,12.80
2012,10,16,13,46,12.80
2012,10,16,13,47,12.80
2012,10,16,13,48,12.80
2012,10,16,13,49,12.80
2012,10,16,13,50,12.70
2012,10,16,13,51,12.70
2012,10,16,13,52,12.70
2012,10,16,13,53,12.70
2012,10,16,13,54,12.70
2012,10,16,13,55,12.60
2012,10,16,13,56,12.60
2012,10,16,13,57,12.60
2012,10,16,13,58,12.60
2012,10,16,13,59,12.60
2012,10,16,14,00,12.60
2012,10,16,14,01,12.60
2012,10,16,14,02,12.60
2012,10,16,14,03,12.70
2012,10,16,14,04,12.70
2012,10,16,14,05,12.80
2012,10,16,14,06,12.80
2012,10,16,14,07,12.80
2012,10,16,14,08,12.80
2012,10,16,14,09,12.80
2012,10,16,14,10,12.80
2012,10,16,14,11,12.80
2012,10,16,14,12,12.90
2012,10,16,14,13,12.90
2012,10,16,14,14,13.00
2012,10,16,14,15,13.10
2012,10,16,14,16,13.10
2012,10,16,14,17,13.20
2012,10,16,14,18,13.20
2012,10,16,14,19,13.20
2012,10,16,14,20,13.30
2012,10,16,14,21,13.30
2012,10,16,14,22,13.30
2012,10,16,14,23,13.30
2012,10,16,14,24,13.40
2012,10,16,14,25,13.40
2012,10,16,14,26,13.50
2012,10,16,14,27,13.50
2012,10,16,14,28,13.60
2012,10,16,14,29,13.60
2012,10,16,14,30,13.60
2012,10,16,14,31,13.60
2012,10,16,14,32,13.60
2012,10,16,14,33,13.70
2012,10,16,14,34,13.70
2012,10,16,14,35,13.70
2012,10,16,14,36,13.70
2012,10,16,14,37,13.80
2012,10,16,14,38,13.80
2012,10,16,14,39,13.90
2012,10,16,14,40,13.90
2012,10,16,14,41,14.00
2012,10,16,14,42,14.10
2012,10,16,14,43,14.20
2012,10,16,14,44,14.20
2012,10,16,14,45,14.30
2012,10,16,14,46,14.30
2012,10,16,14,47,14.40
2012,10,16,14,48,14.40
2012,10,16,14,49,14.50
2012,10,16,14,50,14.50
2012,10,16,14,51,14.60
2012,10,16,14,52,14.70
2012,10,16,14,53,14.70
2012,10,16,14,54,14.80
2012,10,16,14,55,14.80
2012,10,16,14,56,14.80
2012,10,16,14,57,14.80
2012,10,16,14,58,14.80
2012,10,16,14,59,14.80
2012,10,16,15,00,14.70
2012,10,16,15,01,14.70
2012,10,16,15,02,14.70
2012,10,16,15,03,14.60
2012,10,16,15,04,14.60
2012,10,16,15,05,14.60
2012,10,16,15,06,14.60
2012,10,16,15,07,14.60
2012,10,16,15,08,14.60
2012,10,16,15,09,14.60
2012,10,16,15,10,14.60
2012,10,16,15,11,14.60
2012,10,16,15,12,14.60
2012,10,16,15,13,14.60
2012,10,16,15,14,14.60
2012,10,16,15,15,14.60
2012,10,16,15,16,14.60
2012,10,16,15,17,14.50
2012,10,16,15,18,14.40
2012,10,16,15,19,14.30
2012,10,16,15,20,14.10
2012,10,16,15,21,14.00
2012,10,16,15,22,13.80
2012,10,16,15,23,13.70
2012,10,16,15,24,13.70
2012,10,16,15,25,13.60
2012,10,16,15,26,13.50
2012,10,16,15,27,13.50
2012,10,16,15,28,13.40
2012,10,16,15,29,13.40
2012,10,16,15,30,13.40
2012,10,16,15,31,13.30
2012,10,16,15,32,13.30
2012,10,16,15,33,13.30
2012,10,16,15,34,13.30
2012,10,16,15,35,13.30
2012,10,16,15,36,13.30
2012,10,16,15,37,13.30
2012,10,16,15,38,13.30
2012,10,16,15,39,13.30
2012,10,16,15,40,13.30
2012,10,16,15,41,13.30
2012,10,16,15,42,13.30
2012,10,16,15,43,13.30
2012,10,16,15,44,13.30
2012,10,16,15,45,13.20
2012,10,16,15,46,13.10
2012,10,16,15,47,13.10
2012,10,16,15,48,13.00
2012,10,16,15,49,13.00
2012,10,16,15,50,13.00
2012,10,16,15,51,12.90
2012,10,16,15,52,12.80
2012,10,16,15,53,12.60
2012,10,16,15,54,12.50
2012,10,16,15,55,12.40
2012,10,16,15,56,12.30
2012,10,16,15,57,12.10
2012,10,16,15,58,12.00
2012,10,16,15,59,11.90
2012,10,16,16,00,11.90
2012,10,16,16,01,11.80
2012,10,16,16,02,11.80
2012,10,16,16,03,11.80
2012,10,16,16,04,11.70
2012,10,16,16,05,11.70
2012,10,16,16,06,11.70
2012,10,16,16,07,11.60
2012,10,16,16,08,11.60
2012,10,16,16,09,11.60
2012,10,16,16,10,11.50
2012,10,16,16,11,11.50
2012,10,16,16,12,11.50
2012,10,16,16,13,11.40
2012,10,16,16,14,11.40
2012,10,16,16,15,11.40
2012,10,16,16,16,11.40
2012,10,16,16,17,11.40
2012,10,16,16,18,11.40
2012,10,16,16,19,11.40
2012,10,16,16,20,11.30
2012,10,16,16,21,11.30
2012,10,16,16,22,11.30
2012,10,16,16,23,11.30
2012,10,16,16,24,11.30
2012,10,16,16,25,11.30
2012,10,16,16,26,11.30
2012,10,16,16,27,11.30
2012,10,16,16,28,11.30
2012,10,16,16,29,11.20
2012,10,16,16,30,11.20
2012,10,16,16,31,11.20
2012,10,16,16,32,11.20
2012,10,16,16,33,11.20
2012,10,16,16,34,11.20
2012,10,16,16,35,11.20
2012,10,16,16,36,11.20
2012,10,16,16,37,11.20
2012,10,16,16,38,11.20
2012,10,16,16,39,11.30
2012,10,16,16,40,11.30
2012,10,16,16,41,11.30
2012,10,16,16,42,11.30
2012,10,16,16,43,11.30
2012,10,16,16,44,11.30
2012,10,16,16,45,11.40
2012,10,16,16,46,11.40
2012,10,16,16,47,11.40
2012,10,16,16,48,11.50
2012,10,16,16,49,11.50
2012,10,16,16,50,11.60
2012,10,16,16,51,11.60
2012,10,16,16,52,11.60
2012,10,16,16,53,11.70
2012,10,16,16,54,11.70
2012,10,16,16,55,11.80
2012,10,16,16,56,11.80
2012,10,16,16,57,11.80
2012,10,16,16,58,11.90
2012,10,16,16,59,11.90
2012,10,16,17,00,11.90
2012,10,16,17,01,11.90
2012,10,16,17,02,11.90
2012,10,16,17,03,11.90
2012,10,16,17,04,11.90
2012,10,16,17,05,11.80
2012,10,16,17,06,11.80
2012,10,16,17,07,11.80
2012,10,16,17,08,11.80
2012,10,16,17,09,11.80
2012,10,16,17,10,11.80
2012,10,16,17,11,11.80
2012,10,16,17,12,11.80
2012,10,16,17,13,11.80
2012,10,16,17,14,11.90
2012,10,16,17,15,11.80
2012,10,16,17,16,11.80
2012,10,16,17,17,11.80
2012,10,16,17,18,11.80
2012,10,16,17,19,11.70
2012,10,16,17,20,11.70
2012,10,16,17,21,11.60
2012,10,16,17,22,11.60
2012,10,16,17,23,11.50
2012,10,16,17,24,11.50
2012,10,16,17,25,11.40
2012,10,16,17,26,11.40
2012,10,16,17,27,11.30
2012,10,16,17,28,11.30
2012,10,16,17,29,11.30
2012,10,16,17,30,11.20
2012,10,16,17,31,11.10